GW6215 Weather Reports


time (UTC)temp
C
wind
direction
speed
KPH
gust
KPH
rain 1hr
cm
rain 24hr
cm
rain mn
cm
humidity
%
barometer
mb
20260906172528 37 0 0.0 8.0 0.00 0.00 0.00 42 1015.2
20260906172027 37 67 1.6 8.0 0.00 0.00 0.00 43 1015.3
20260906171543 37 127 0.0 3.2 0.00 0.00 0.00 46 1015.5
20260906171028 36 165 0.0 11.3 0.00 0.00 0.00 48 1015.6
20260906170525 36 0 3.2 11.3 0.00 0.00 0.00 47 1015.6
20260906170043 36 0 0.0 8.0 0.00 0.00 0.00 48 1015.7
20260906165526 35 0 1.6 8.0 0.00 0.00 0.00 47 1015.7
20260906165029 36 44 0.0 6.4 0.00 0.00 0.00 47 1015.7
20260906164550 35 97 1.6 9.7 0.00 0.00 0.00 47 1015.9
20260906164029 35 21 3.2 9.7 0.00 0.00 0.00 49 1016.0
20260906163528 35 355 3.2 9.7 0.00 0.00 0.00 50 1015.9
20260906163046 35 309 1.6 9.7 0.00 0.00 0.00 49 1015.9
20260906162528 35 46 3.2 9.7 0.00 0.00 0.00 49 1015.9
20260906162028 35 51 1.6 4.8 0.00 0.00 0.00 49 1016.0
20260906161542 35 0 0.0 6.4 0.00 0.00 0.00 49 1016.0
20260906161032 35 68 0.0 6.4 0.00 0.00 0.00 51 1016.0
20260906160528 35 104 1.6 6.4 0.00 0.00 0.00 50 1016.0
20260906160047 34 146 0.0 4.8 0.00 0.00 0.00 52 1016.0
20260906155527 34 122 0.0 8.0 0.00 0.00 0.00 52 1016.1
20260906155030 34 35 1.6 8.0 0.00 0.00 0.00 52 1016.0
20260906154545 34 108 1.6 4.8 0.00 0.00 0.00 52 1016.0
20260906154028 34 92 0.0 3.2 0.00 0.00 0.00 52 1015.9
20260906153529 33 154 0.0 1.6 0.00 0.00 0.00 54 1015.9
20260906153108 33 0 0.0 3.2 0.00 0.00 0.00 55 1015.9
20260906152530 33 84 0.0 3.2 0.00 0.00 0.00 54 1015.9
20260906152028 33 250 0.0 3.2 0.00 0.00 0.00 56 1015.9
20260906151558 33 33 0.0 3.2 0.00 0.00 0.00 57 1016.0
20260906151028 33 112 0.0 1.6 0.00 0.00 0.00 57 1015.9
20260906150528 32 0 0.0 1.6 0.00 0.00 0.00 59 1015.9
20260906150047 31 0 0.0 3.2 0.00 0.00 0.00 59 1015.9
20260906145529 31 0 0.0 3.2 0.00 0.00 0.00 60 1015.9
20260906145029 31 23 0.0 1.6 0.00 0.00 0.00 61 1015.9
20260906144550 31 350 0.0 1.6 0.00 0.00 0.00 61 1015.9
20260906144027 31 39 0.0 1.6 0.00 0.00 0.00 62 1015.9
20260906143528 31 13 0.0 1.6 0.00 0.00 0.00 64 1015.8
20260906143053 31 0 0.0 1.6 0.00 0.00 0.00 64 1015.9
20260906142528 30 49 0.0 1.6 0.00 0.00 0.00 65 1015.9
20260906142033 30 0 0.0 1.6 0.00 0.00 0.00 65 1016.0
20260906141545 30 0 0.0 1.6 0.00 0.00 0.00 68 1016.0
20260906141028 28 0 0.0 1.6 0.00 0.00 0.00 70 1016.0
20260906140528 28 0 0.0 1.6 0.00 0.00 0.00 72 1015.9
20260906140048 28 0 0.0 1.6 0.00 0.00 0.00 73 1016.0
20260906135526 27 0 0.0 1.6 0.00 0.00 0.00 74 1015.9
20260906135028 27 0 0.0 1.6 0.00 0.00 0.00 74 1015.9
20260906134605 27 0 0.0 1.6 0.00 0.00 0.00 76 1015.8
20260906134028 26 99 0.0 1.6 0.00 0.00 0.00 78 1015.8
20260906133533 26 0 0.0 1.6 0.00 0.00 0.00 79 1015.8
20260906133051 26 0 0.0 1.6 0.00 0.00 0.00 80 1015.9
20260906132529 25 0 0.0 0.0 0.00 0.00 0.00 82 1015.8
20260906132029 25 0 0.0 0.0 0.00 0.00 0.00 82 1015.8
20260906131552 25 0 0.0 0.0 0.00 0.00 0.00 83 1015.8
20260906131028 25 0 0.0 0.0 0.00 0.00 0.00 85 1015.7
20260906130529 24 0 0.0 0.0 0.00 0.00 0.00 86 1015.7
20260906130042 23 0 0.0 0.0 0.00 0.00 0.00 87 1015.7
20260906125529 23 0 0.0 1.6 0.00 0.00 0.00 89 1015.5
20260906125031 22 0 0.0 1.6 0.00 0.00 0.00 90 1015.5
20260906124550 22 0 0.0 0.0 0.00 0.00 0.00 91 1015.5
20260906124029 22 0 0.0 0.0 0.00 0.00 0.00 92 1015.4
20260906123527 21 0 0.0 0.0 0.00 0.00 0.00 93 1015.2
20260906123054 21 0 0.0 0.0 0.00 0.00 0.00 94 1015.2
20260906122529 21 105 0.0 0.0 0.00 0.00 0.00 94 1015.0
20260906122029 20 0 0.0 0.0 0.00 0.00 0.00 94 1015.1
20260906121544 20 0 0.0 0.0 0.00 0.00 0.00 94 1015.0
20260906121028 20 0 0.0 0.0 0.00 0.00 0.00 94 1015.0
20260906120529 20 0 0.0 0.0 0.00 0.00 0.00 94 1015.0
20260906120051 20 0 0.0 0.0 0.00 0.00 0.00 94 1015.1
20260906115529 20 0 0.0 0.0 0.00 0.00 0.00 94 1015.0
20260906115032 20 0 0.0 0.0 0.00 0.00 0.00 94 1014.7
20260906114543 20 0 0.0 0.0 0.00 0.00 0.00 94 1014.7
20260906114030 20 0 0.0 0.0 0.00 0.00 0.00 93 1014.7
20260906113528 20 0 0.0 0.0 0.00 0.00 0.00 93 1014.6
20260906113103 20 0 0.0 0.0 0.00 0.00 0.00 93 1014.6
20260906112531 20 0 0.0 0.0 0.00 0.00 0.00 94 1014.6
20260906112028 20 0 0.0 0.0 0.00 0.00 0.00 93 1014.6
20260906111541 20 0 0.0 0.0 0.00 0.00 0.00 93 1014.6
20260906111028 20 0 0.0 0.0 0.00 0.00 0.00 93 1014.6
20260906110528 20 0 0.0 0.0 0.00 0.00 0.00 93 1014.6
20260906110052 20 0 0.0 0.0 0.00 0.00 0.00 93 1014.6
20260906105528 20 0 0.0 0.0 0.00 0.00 0.00 93 1014.5
20260906105028 20 0 0.0 0.0 0.00 0.00 0.00 93 1014.6
20260906104544 20 0 0.0 0.0 0.00 0.00 0.00 92 1014.6
20260906104028 21 0 0.0 1.6 0.00 0.00 0.00 92 1014.6
20260906103529 21 0 0.0 1.6 0.00 0.00 0.00 92 1014.4
20260906103059 21 0 0.0 1.6 0.00 0.00 0.00 93 1014.5
20260906102532 21 0 0.0 0.0 0.00 0.00 0.00 92 1014.4
20260906102028 21 0 0.0 0.0 0.00 0.00 0.00 92 1014.4
20260906101542 21 0 0.0 0.0 0.00 0.00 0.00 92 1014.4
20260906101028 21 0 0.0 0.0 0.00 0.00 0.00 92 1014.4
20260906100532 21 0 0.0 0.0 0.00 0.00 0.00 92 1014.4
20260906100047 21 0 0.0 0.0 0.00 0.00 0.00 91 1014.4
20260906095528 21 0 0.0 0.0 0.00 0.00 0.00 92 1014.4
20260906095029 21 0 0.0 0.0 0.00 0.00 0.00 92 1014.4
20260906094544 21 0 0.0 0.0 0.00 0.00 0.00 92 1014.3
20260906094028 21 0 0.0 0.0 0.00 0.00 0.00 91 1014.4
20260906093529 21 0 0.0 0.0 0.00 0.00 0.00 91 1014.4
20260906093041 21 0 0.0 0.0 0.00 0.00 0.00 91 1014.3
20260906092528 21 0 0.0 0.0 0.00 0.00 0.00 91 1014.4
20260906092033 21 0 0.0 0.0 0.00 0.00 0.00 91 1014.4
20260906091547 21 0 0.0 0.0 0.00 0.00 0.00 90 1014.4
20260906091028 21 0 0.0 0.0 0.00 0.00 0.00 90 1014.3
20260906090529 21 0 0.0 0.0 0.00 0.00 0.00 90 1014.3
20260906090058 21 0 0.0 0.0 0.00 0.00 0.00 90 1014.2
20260906085529 21 0 0.0 0.0 0.00 0.00 0.00 90 1014.1
20260906085029 21 0 0.0 0.0 0.00 0.00 0.00 90 1014.0
20260906084543 21 0 0.0 0.0 0.00 0.00 0.00 90 1014.1
20260906084028 21 0 0.0 1.6 0.00 0.00 0.00 90 1014.0
20260906083528 21 0 0.0 1.6 0.00 0.00 0.00 90 1014.0
20260906083049 21 0 0.0 1.6 0.00 0.00 0.00 90 1014.1
20260906082528 21 0 0.0 0.0 0.00 0.00 0.00 90 1014.0
20260906082031 21 0 0.0 0.0 0.00 0.00 0.00 90 1014.0
20260906081547 21 0 0.0 0.0 0.00 0.00 0.00 90 1014.0
20260906081029 22 0 0.0 0.0 0.00 0.00 0.00 89 1014.2
20260906080530 22 0 0.0 0.0 0.00 0.00 0.00 89 1014.1
20260906080044 22 0 0.0 0.0 0.00 0.00 0.00 89 1014.1
20260906075529 22 0 0.0 0.0 0.00 0.00 0.00 89 1014.1
20260906075028 22 0 0.0 0.0 0.00 0.00 0.00 89 1014.0
20260906074543 22 0 0.0 0.0 0.00 0.00 0.00 88 1014.0
20260906074028 22 0 0.0 0.0 0.00 0.00 0.00 88 1014.0
20260906073529 22 0 0.0 0.0 0.00 0.00 0.00 88 1014.0
20260906073104 22 0 0.0 0.0 0.00 0.00 0.00 88 1013.9
20260906072528 22 0 0.0 0.0 0.00 0.00 0.00 88 1014.0
20260906072030 22 0 0.0 0.0 0.00 0.00 0.00 88 1014.1
20260906071543 22 0 0.0 1.6 0.00 0.00 0.00 88 1014.1
20260906071029 22 0 0.0 1.6 0.00 0.00 0.00 88 1014.1
20260906070530 22 0 0.0 0.0 0.00 0.00 0.00 88 1014.2
20260906070044 22 0 0.0 0.0 0.00 0.00 0.00 88 1014.1
20260906065532 22 0 0.0 0.0 0.00 0.00 0.00 88 1014.1
20260906065029 22 0 0.0 0.0 0.00 0.00 0.00 87 1014.2
20260906064546 22 0 0.0 0.0 0.00 0.00 0.00 87 1014.2
20260906064030 22 0 0.0 0.0 0.00 0.00 0.00 86 1014.3
20260906063526 22 0 0.0 0.0 0.00 0.00 0.00 86 1014.3
20260906063049 22 0 0.0 0.0 0.00 0.00 0.00 87 1014.3
20260906062528 22 0 0.0 0.0 0.00 0.00 0.00 86 1014.4
20260906062029 22 0 0.0 0.0 0.00 0.00 0.00 86 1014.4
20260906061543 22 0 0.0 0.0 0.00 0.00 0.00 86 1014.4
20260906061029 22 0 0.0 0.0 0.00 0.00 0.00 86 1014.3
20260906060530 22 0 0.0 0.0 0.00 0.00 0.00 86 1014.2
20260906060042 22 0 0.0 0.0 0.00 0.00 0.00 86 1014.3
20260906055529 22 0 0.0 0.0 0.00 0.00 0.00 86 1014.3
20260906055029 22 0 0.0 0.0 0.00 0.00 0.00 85 1014.2
20260906054546 22 0 0.0 0.0 0.00 0.00 0.00 85 1014.2
20260906054029 22 0 0.0 0.0 0.00 0.00 0.00 85 1014.2
20260906053530 23 0 0.0 0.0 0.00 0.00 0.00 85 1014.2
20260906053042 23 0 0.0 0.0 0.00 0.00 0.00 85 1014.2
20260906052533 23 0 0.0 0.0 0.00 0.00 0.00 84 1014.2
20260906052028 23 0 0.0 0.0 0.00 0.00 0.00 84 1014.1
20260906051556 23 0 0.0 0.0 0.00 0.00 0.00 83 1014.1
20260906051031 23 0 0.0 0.0 0.00 0.00 0.00 82 1014.1
20260906050528 23 0 0.0 0.0 0.00 0.00 0.00 82 1014.1
20260906050104 23 0 0.0 0.0 0.00 0.00 0.00 83 1014.1
20260906045529 23 0 0.0 0.0 0.00 0.00 0.00 83 1014.2
20260906045029 23 0 0.0 0.0 0.00 0.00 0.00 83 1014.1
20260906044550 23 0 0.0 0.0 0.00 0.00 0.00 82 1014.0
20260906044030 23 0 0.0 0.0 0.00 0.00 0.00 82 1014.0
20260906043531 23 0 0.0 0.0 0.00 0.00 0.00 81 1014.1
20260906043051 24 0 0.0 0.0 0.00 0.00 0.00 81 1014.3
20260906042529 24 0 0.0 0.0 0.00 0.00 0.00 80 1014.3
20260906042029 24 0 0.0 0.0 0.00 0.00 0.00 80 1014.3
20260906041550 24 0 0.0 0.0 0.00 0.00 0.00 80 1014.2
20260906041028 24 0 0.0 0.0 0.00 0.00 0.00 80 1014.1
20260906040529 25 0 0.0 0.0 0.00 0.00 0.00 79 1014.0
20260906040046 25 0 0.0 0.0 0.00 0.00 0.00 79 1014.1
20260906035531 25 0 0.0 0.0 0.00 0.00 0.00 78 1014.1
20260906035029 25 0 0.0 0.0 0.00 0.00 0.00 78 1014.1
20260906034605 25 0 0.0 0.0 0.00 0.00 0.00 78 1014.1
20260906034030 25 0 0.0 0.0 0.00 0.00 0.00 78 1014.1
20260906033528 25 0 0.0 0.0 0.00 0.00 0.00 78 1014.1
20260906033044 25 0 0.0 0.0 0.00 0.00 0.00 77 1014.1
20260906032528 25 0 0.0 0.0 0.00 0.00 0.00 76 1013.9
20260906032029 25 0 0.0 0.0 0.00 0.00 0.00 75 1014.0
20260906031552 26 0 0.0 0.0 0.00 0.00 0.00 75 1014.0
20260906031029 26 0 0.0 0.0 0.00 0.00 0.00 75 1013.9
20260906030528 26 0 0.0 0.0 0.00 0.00 0.00 74 1013.9
20260906030045 26 0 0.0 0.0 0.00 0.00 0.00 74 1013.9
20260906025529 26 0 0.0 0.0 0.00 0.00 0.00 73 1013.9
20260906025030 26 0 0.0 1.6 0.00 0.00 0.00 73 1013.9
20260906024551 26 0 0.0 1.6 0.00 0.00 0.00 72 1013.9
20260906024029 27 0 0.0 1.6 0.00 0.00 0.00 71 1013.8
20260906023529 27 0 0.0 0.0 0.00 0.00 0.00 69 1013.8
20260906023056 27 0 0.0 0.0 0.00 0.00 0.00 69 1013.8
20260906022532 27 0 0.0 1.6 0.00 0.00 0.00 67 1013.7
20260906022029 28 0 0.0 1.6 0.00 0.00 0.00 67 1013.7
20260906021552 28 0 0.0 1.6 0.00 0.00 0.00 66 1013.7
20260906021028 28 0 0.0 1.6 0.00 0.00 0.00 64 1013.5
20260906020529 29 0 0.0 1.6 0.00 0.00 0.00 64 1013.5
20260906020055 29 0 0.0 1.6 0.00 0.00 0.00 63 1013.4
20260906015530 29 0 0.0 1.6 0.00 0.00 0.00 62 1013.4
20260906015029 29 35 0.0 6.4 0.00 0.00 0.00 63 1013.2
20260906014542 28 0 0.0 6.4 0.00 0.00 0.00 63 1013.2
20260906014028 28 0 0.0 6.4 0.00 0.00 0.00 64 1013.1
20260906013528 28 0 0.0 1.6 0.00 0.00 0.00 66 1013.1
20260906013101 28 0 0.0 0.0 0.00 0.00 0.00 65 1013.0
20260906012529 28 0 0.0 3.2 0.00 0.00 0.00 64 1013.0
20260906012029 28 0 0.0 3.2 0.00 0.00 0.00 64 1012.9
20260906011548 29 41 0.0 1.6 0.00 0.00 0.00 63 1012.9
20260906011030 29 0 0.0 1.6 0.00 0.00 0.00 62 1012.8
20260906010528 30 0 0.0 0.0 0.00 0.00 0.00 61 1012.7
20260906010043 30 0 0.0 0.0 0.00 0.00 0.00 59 1012.6
20260906005529 30 0 0.0 0.0 0.00 0.00 0.00 58 1012.6
20260906005030 31 0 0.0 0.0 0.00 0.00 0.00 56 1012.5
20260906004549 31 0 0.0 8.0 0.00 0.00 0.00 55 1012.6
20260906004032 31 0 0.0 8.0 0.00 0.00 0.00 54 1012.7
20260906003527 31 20 0.0 8.0 0.00 0.00 0.00 56 1012.7
20260906003046 31 0 0.0 4.8 0.00 0.00 0.00 57 1012.7
20260906002527 32 37 1.6 4.8 0.00 0.00 0.00 57 1012.6
20260906002029 33 0 0.0 0.0 0.00 0.00 0.00 54 1012.6
20260906001544 33 0 0.0 0.0 0.00 0.00 0.00 52 1012.6
20260906001028 34 0 0.0 0.0 0.00 0.00 0.00 50 1012.6
20260906000529 35 0 0.0 0.0 0.00 0.00 0.00 48 1012.6
20260906000047 36 0 0.0 0.0 0.00 0.00 0.00 46 1012.6
20260905235529 36 0 0.0 0.0 0.00 0.00 0.00 44 1012.6
20260905235028 37 0 0.0 0.0 0.00 0.00 0.00 40 1012.6
20260905234558 38 0 0.0 0.0 0.00 0.00 0.00 38 1012.6
20260905234030 38 0 0.0 0.0 0.00 0.00 0.00 35 1012.6
20260905233528 38 0 0.0 1.6 0.00 0.00 0.00 36 1012.5
20260905233044 38 0 0.0 3.2 0.00 0.00 0.00 35 1012.5
20260905232528 38 130 0.0 3.2 0.00 0.00 0.00 35 1012.5
20260905232029 38 106 0.0 1.6 0.00 0.00 0.00 34 1012.5
20260905231542 38 0 0.0 4.8 0.00 0.00 0.00 36 1012.6
20260905231025 38 101 0.0 4.8 0.00 0.00 0.00 34 1012.5
20260905230525 37 0 0.0 4.8 0.00 0.00 0.00 35 1012.6
20260905230051 37 0 0.0 6.4 0.00 0.00 0.00 37 1012.6
20260905225526 37 0 3.2 6.4 0.00 0.00 0.00 35 1012.5
20260905225027 37 55 1.6 8.0 0.00 0.00 0.00 36 1012.5
20260905224541 37 35 1.6 8.0 0.00 0.00 0.00 36 1012.4
20260905224024 38 35 0.0 4.8 0.00 0.00 0.00 35 1012.4
20260905223528 38 0 0.0 4.8 0.00 0.00 0.00 35 1012.3
20260905223052 38 330 1.6 4.8 0.00 0.00 0.00 34 1012.3
20260905222528 38 30 0.0 4.8 0.00 0.00 0.00 36 1012.4
20260905222027 37 46 0.0 6.4 0.00 0.00 0.00 35 1012.4
20260905221543 37 3 3.2 9.7 0.00 0.00 0.00 34 1012.4
20260905221027 38 46 3.2 9.7 0.00 0.00 0.00 35 1012.4
20260905220524 38 34 1.6 8.0 0.00 0.00 0.00 35 1012.5
20260905215526 38 41 1.6 8.0 0.00 0.00 0.00 35 1012.5
20260905215024 38 76 1.6 8.0 0.00 0.00 0.00 35 1012.7
20260905214545 38 155 0.0 8.0 0.00 0.00 0.00 36 1012.8
20260905214029 38 120 3.2 6.4 0.00 0.00 0.00 37 1012.7
20260905213526 37 165 0.0 4.8 0.00 0.00 0.00 37 1012.8
20260905213042 37 296 1.6 8.0 0.00 0.00 0.00 37 1012.9
20260905212526 37 0 1.6 8.0 0.00 0.00 0.00 37 1012.9
20260905212025 37 250 3.2 12.9 0.00 0.00 0.00 37 1013.0
20260905211544 36 0 4.8 12.9 0.00 0.00 0.00 39 1013.0
20260905211025 36 295 4.8 12.9 0.00 0.00 0.00 39 1013.2
20260905210525 37 314 3.2 9.7 0.00 0.00 0.00 38 1013.2
20260905210058 37 349 3.2 8.0 0.00 0.00 0.00 39 1013.3
20260905205524 37 293 0.0 8.0 0.00 0.00 0.00 38 1013.4
20260905205028 37 0 3.2 8.0 0.00 0.00 0.00 40 1013.4
20260905204550 37 29 3.2 8.0 0.00 0.00 0.00 37 1013.5
20260905204025 38 75 3.2 6.4 0.00 0.00 0.00 37 1013.6
20260905203530 37 0 0.0 6.4 0.00 0.00 0.00 40 1013.6
20260905203058 37 200 0.0 9.7 0.00 0.00 0.00 40 1013.7
20260905202524 37 49 3.2 9.7 0.00 0.00 0.00 41 1013.7
20260905202024 37 106 3.2 9.7 0.00 0.00 0.00 42 1013.8
20260905201542 37 44 3.2 14.5 0.00 0.00 0.00 41 1013.9
20260905201028 37 101 4.8 14.5 0.00 0.00 0.00 41 1014.0
20260905200527 38 69 1.6 12.9 0.00 0.00 0.00 40 1014.0
20260905200042 37 0 0.0 16.1 0.00 0.00 0.00 40 1014.1
20260905195528 37 213 8.0 16.1 0.00 0.00 0.00 39 1014.0
20260905195032 37 181 4.8 16.1 0.00 0.00 0.00 39 1014.1
20260905194548 37 0 0.0 4.8 0.00 0.00 0.00 42 1014.2
20260905194028 37 0 0.0 4.8 0.00 0.00 0.00 41 1014.3
20260905193529 37 0 0.0 4.8 0.00 0.00 0.00 42 1014.4
20260905193044 37 0 0.0 4.8 0.00 0.00 0.00 43 1014.4
20260905192525 36 103 0.0 8.0 0.00 0.00 0.00 45 1014.5
20260905192026 36 44 1.6 8.0 0.00 0.00 0.00 44 1014.5
20260905191543 37 79 3.2 9.7 0.00 0.00 0.00 45 1014.4
20260905191025 36 39 0.0 16.1 0.00 0.00 0.00 45 1014.5
20260905190529 36 26 4.8 16.1 0.00 0.00 0.00 45 1014.6
20260905190046 36 70 3.2 9.7 0.00 0.00 0.00 46 1014.7
20260905185524 36 327 0.0 8.0 0.00 0.00 0.00 44 1014.8
20260905185031 36 307 3.2 8.0 0.00 0.00 0.00 46 1015.0
20260905184550 35 326 1.6 43.5 0.00 0.00 0.00 45 1015.0
20260905184028 35 50 0.0 43.5 0.00 0.00 0.00 47 1015.1
20260905183528 35 30 8.0 29.0 0.00 0.00 0.00 48 1015.0
20260905183045 35 250 0.0 6.4 0.00 0.00 0.00 49 1015.1
20260905182526 35 322 1.6 4.8 0.00 0.00 0.00 46 1015.2
20260905182026 35 55 1.6 12.9 0.00 0.00 0.00 46 1015.3
20260905181549 35 0 3.2 12.9 0.00 0.00 0.00 46 1015.3
20260905181025 35 330 4.8 16.1 0.00 0.00 0.00 46 1015.4
20260905180527 35 351 8.0 16.1 0.00 0.00 0.00 47 1015.4
20260905180046 36 43 4.8 14.5 0.00 0.00 0.00 47 1015.5
20260905175527 35 155 0.0 11.3 0.00 0.00 0.00 48 1015.6
20260905175025 35 0 1.6 11.3 0.00 0.00 0.00 47 1015.7
20260905174545 35 0 3.2 12.9 0.00 0.00 0.00 48 1015.7
20260905174025 35 43 6.4 16.1 0.00 0.00 0.00 48 1015.9
20260905173525 35 116 6.4 16.1 0.00 0.00 0.00 47 1016.0
20260905173048 35 25 8.0 16.1 0.00 0.00 0.00 48 1015.9